NOAA 15 (25338 NORAD) Tracking and Keplerian Element Data

This shows tracking and keplerian element data for the satellite.

Feedback or suggestion? Click here.




ElementValue
Catalog25338
NameNOAA 15
Epoch Orbit43576
Epoch Day354.1912005
Epoch Year2025
RAAN14.537
Inclination98.5212
Eccentricity0.0010866
Argument of Perigee147.0932
Mean Anonmoly213.0927
Mean Motion14.27073853
Decay Rate1.15E-06
L11 25338U 98030A 25354.19120050 .00000115 00000+0 64718-4 0 9994
L22 25338 98.5212 14.5370 0010866 147.0932 213.0927 14.27073853435766



Live tracking and technical data element details for NOAA 15 (NORAD 25338). NOAA 15 can be tracked NOW for your location showing map with azimuth and elevation plus other details from your city location.







IsCatalogInMostPopularTable: catalog: 25338, numindb: 2092
Update: records affected: 1



GetName: 25338 NOAA 15

Hit Count: updated at: Thu, 21 May 2026 10:36:04 GMT